GW7317 Weather Reports


Display with metric or nautical units.
time (UTC)temp
F
wind
direction
speed
MPH
gust
MPH
rain 1hr
in
rain 24hr
in
rain mn
in
humidity
%
barometer
mb
20260506145051 80 227 0.0 1.0 0.00 0.00 0.00 82 1010.5
20260506144548 80 229 0.0 1.0 0.00 0.00 0.00 82 1010.3
20260506144045 80 230 0.0 2.0 0.00 0.00 0.00 83 1010.4
20260506143543 80 146 1.0 1.0 0.00 0.00 0.00 83 1010.3
20260506143041 80 144 0.0 0.0 0.00 0.00 0.00 84 1010.2
20260506142538 80 187 0.0 0.0 0.00 0.00 0.00 84 1010.2
20260506142036 80 187 0.0 0.0 0.00 0.00 0.00 83 1010.2
20260506141534 80 162 1.0 1.0 0.00 0.00 0.00 83 1010.2
20260506141032 79 201 0.0 0.0 0.00 0.00 0.00 84 1010.1
20260506140529 79 200 0.0 0.0 0.00 0.00 0.00 85 1010.3
20260506140026 79 202 0.0 1.0 0.00 0.00 0.00 86 1010.3
20260506135523 78 200 0.0 0.0 0.00 0.00 0.00 87 1010.4
20260506135019 78 199 0.0 0.0 0.00 0.00 0.00 87 1010.2
20260506134515 78 51 0.0 1.0 0.00 0.00 0.00 88 1010.5
20260506134012 78 51 1.0 1.0 0.00 0.00 0.00 88 1010.5
20260506133509 78 52 1.0 3.0 0.00 0.00 0.00 88 1010.5
20260506133006 78 205 0.0 1.0 0.00 0.00 0.00 88 1010.5
20260506132503 77 205 1.0 1.0 0.00 0.00 0.00 89 1010.6
20260506132000 77 205 0.0 0.0 0.00 0.00 0.00 89 1010.6
20260506131457 77 205 0.0 1.0 0.00 0.00 0.00 89 1010.6
20260506130954 77 205 0.0 0.0 0.00 0.00 0.00 90 1010.7
20260506130450 77 204 0.0 0.0 0.00 0.00 0.00 90 1010.4
20260506125948 77 204 0.0 0.0 0.00 0.00 0.00 90 1010.4
20260506125446 77 204 0.0 1.0 0.00 0.00 0.00 91 1010.5
20260506124944 76 204 0.0 0.0 0.00 0.00 0.00 91 1010.4
20260506124441 76 204 0.0 0.0 0.00 0.00 0.00 91 1010.2
20260506123939 76 204 0.0 0.0 0.00 0.00 0.00 92 1010.3
20260506123437 76 204 0.0 0.0 0.00 0.00 0.00 92 1010.3
20260506122934 76 204 0.0 0.0 0.00 0.00 0.00 92 1010.0
20260506122431 75 204 0.0 0.0 0.00 0.00 0.00 92 1010.1
20260506121929 75 204 0.0 0.0 0.00 0.00 0.00 92 1010.3
20260506121426 75 204 0.0 0.0 0.00 0.00 0.00 92 1010.0
20260506120923 75 204 0.0 0.0 0.00 0.00 0.00 93 1010.2
20260506120420 75 204 0.0 0.0 0.00 0.00 0.00 93 1010.2
20260506115917 75 204 0.0 0.0 0.00 0.00 0.00 93 1009.9
20260506115415 75 204 0.0 0.0 0.00 0.00 0.00 93 1009.9
20260506114914 75 204 0.0 0.0 0.00 0.00 0.00 93 1009.8
20260506114411 75 204 0.0 0.0 0.00 0.00 0.00 93 1009.8
20260506113910 75 204 0.0 0.0 0.00 0.00 0.00 93 1009.8
20260506113407 75 204 0.0 0.0 0.00 0.00 0.00 93 1009.9
20260506112903 75 204 0.0 0.0 0.00 0.00 0.00 93 1009.8
20260506112400 75 204 1.0 1.0 0.00 0.00 0.00 92 1009.6
20260506111857 75 204 0.0 0.0 0.00 0.00 0.00 92 1009.4
20260506111355 75 204 0.0 1.0 0.00 0.00 0.00 93 1009.2
20260506110853 75 177 0.0 1.0 0.00 0.00 0.00 93 1009.3
20260506110350 75 177 0.0 1.0 0.00 0.00 0.00 93 1009.1
20260506105847 75 177 0.0 0.0 0.00 0.00 0.00 93 1009.2
20260506105343 75 177 1.0 1.0 0.00 0.00 0.00 92 1009.1
20260506104841 75 177 0.0 0.0 0.00 0.00 0.00 92 1009.0
20260506104338 75 179 0.0 0.0 0.00 0.00 0.00 92 1009.0
20260506103835 75 179 0.0 2.0 0.00 0.00 0.00 92 1009.1
20260506103333 75 188 0.0 0.0 0.00 0.00 0.00 91 1009.1
20260506102830 75 188 0.0 0.0 0.00 0.00 0.00 91 1009.0
20260506102328 75 188 0.0 0.0 0.00 0.00 0.00 91 1008.9
20260506101825 75 188 0.0 0.0 0.00 0.00 0.00 90 1009.1
20260506101321 75 193 0.0 1.0 0.00 0.00 0.00 90 1008.9
20260506100819 76 191 0.0 0.0 0.00 0.00 0.00 90 1009.4
20260506100317 76 188 0.0 0.0 0.00 0.00 0.00 90 1009.0
20260506095816 76 162 0.0 0.0 0.00 0.00 0.00 89 1009.0
20260506095312 76 153 1.0 2.0 0.00 0.00 0.00 89 1009.0
20260506094809 76 187 0.0 1.0 0.00 0.00 0.00 89 1009.0
20260506094308 76 187 0.0 2.0 0.00 0.00 0.00 89 1008.7
20260506093805 76 192 0.0 0.0 0.00 0.00 0.00 89 1009.0
20260506093302 76 191 2.0 2.0 0.00 0.00 0.00 89 1008.9
20260506092800 76 180 0.0 0.0 0.00 0.00 0.00 89 1008.5
20260506092258 76 214 0.0 2.0 0.00 0.00 0.00 88 1008.6
20260506091755 76 207 1.0 2.0 0.00 0.00 0.00 88 1008.6
20260506091252 77 188 0.0 1.0 0.00 0.00 0.00 88 1008.6
20260506090750 77 215 2.0 3.0 0.00 0.00 0.00 88 1008.4
20260506090247 77 190 0.0 1.0 0.00 0.00 0.00 88 1008.7
20260506085743 77 192 0.0 2.0 0.00 0.00 0.00 88 1009.0
20260506085240 77 228 2.0 2.0 0.00 0.00 0.00 88 1008.7
20260506084736 77 201 1.0 1.0 0.00 0.00 0.00 88 1008.9
20260506084233 77 218 0.0 1.0 0.00 0.00 0.00 88 1008.9
20260506083730 77 212 2.0 2.0 0.00 0.00 0.00 88 1008.7
20260506083227 77 195 1.0 2.0 0.00 0.00 0.00 88 1008.9
20260506082725 77 170 0.0 1.0 0.00 0.00 0.00 88 1008.9
20260506082220 77 169 1.0 3.0 0.00 0.00 0.00 88 1009.2
20260506081718 77 199 0.0 1.0 0.00 0.00 0.00 88 1009.1
20260506081215 77 175 0.0 1.0 0.00 0.00 0.00 88 1009.2
20260506080713 77 179 0.0 2.0 0.00 0.00 0.00 88 1009.3
20260506080209 77 167 2.0 2.0 0.00 0.00 0.00 88 1009.2
20260506073154 77 228 1.0 2.0 0.00 0.00 0.00 87 1009.5
20260506072650 77 186 0.0 0.0 0.00 0.00 0.00 87 1009.6
20260506072148 77 153 0.0 1.0 0.00 0.00 0.00 87 1009.5
20260506071645 77 177 0.0 2.0 0.00 0.00 0.00 87 1009.9
20260506071143 77 153 1.0 1.0 0.00 0.00 0.00 87 1009.9
20260506070640 77 155 0.0 2.0 0.00 0.00 0.00 87 1009.7
20260506070137 77 188 0.0 1.0 0.00 0.00 0.00 87 1009.7
20260506062114 77 190 0.0 1.0 0.00 0.00 0.00 87 1010.0
20260506061609 77 183 0.0 1.0 0.00 0.00 0.00 87 1009.9
20260506061108 77 236 2.0 4.0 0.00 0.00 0.00 86 1009.8
20260506060606 77 218 1.0 1.0 0.00 0.00 0.00 86 1009.8
20260506051035 77 187 1.0 2.0 0.00 0.00 0.00 85 1009.9
20260506050532 77 204 0.0 1.0 0.00 0.00 0.00 84 1010.1
20260506045023 78 216 0.0 1.0 0.00 0.00 0.00 84 1009.8
20260506044521 78 224 2.0 7.0 0.00 0.00 0.00 84 1009.7
20260506044018 78 199 2.0 2.0 0.00 0.00 0.00 83 1009.7
20260506043515 78 218 0.0 2.0 0.00 0.00 0.00 83 1009.8
20260506043013 78 215 0.0 2.0 0.00 0.00 0.00 83 1010.1
20260506042512 78 224 2.0 2.0 0.00 0.00 0.00 83 1009.9
20260506042009 78 203 2.0 4.0 0.00 0.00 0.00 82 1009.9
20260506041508 78 203 0.0 2.0 0.00 0.00 0.00 82 1009.9
20260506041004 78 229 0.0 1.0 0.00 0.00 0.00 82 1009.8
20260506040502 78 265 0.0 1.0 0.00 0.00 0.00 82 1009.6
20260506035957 78 172 1.0 2.0 0.00 0.00 0.00 82 1009.7
20260506035455 78 251 2.0 2.0 0.00 0.00 0.00 82 1009.8
20260506034951 78 219 1.0 2.0 0.00 0.00 0.00 82 1009.6
20260506034449 78 179 0.0 2.0 0.00 0.00 0.00 82 1009.4
20260506033946 78 179 0.0 2.0 0.00 0.00 0.00 82 1009.6
20260506033443 78 190 0.0 0.0 0.00 0.00 0.00 82 1009.7
20260506032940 78 222 0.0 1.0 0.00 0.00 0.00 82 1009.5
20260506032437 78 227 1.0 2.0 0.00 0.00 0.00 81 1009.4
20260506031933 78 184 0.0 1.0 0.00 0.00 0.00 81 1009.4
20260506031431 78 114 2.0 4.0 0.00 0.00 0.00 81 1009.3
20260506030929 78 206 0.0 2.0 0.00 0.00 0.00 81 1009.2
20260506030426 78 177 0.0 1.0 0.00 0.00 0.00 81 1009.1
20260506025923 79 252 0.0 1.0 0.00 0.00 0.00 81 1009.1
20260506025420 79 163 0.0 6.0 0.00 0.00 0.00 81 1009.1
20260506024916 79 208 1.0 1.0 0.00 0.00 0.00 81 1009.1
20260506024414 79 205 1.0 1.0 0.00 0.00 0.00 81 1008.8
20260506023909 79 250 0.0 1.0 0.00 0.00 0.00 80 1008.8
20260506023406 79 200 1.0 1.0 0.00 0.00 0.00 80 1008.6
20260506022903 79 245 1.0 3.0 0.00 0.00 0.00 80 1008.4
20260506022401 79 216 2.0 6.0 0.00 0.00 0.00 79 1008.4
20260506021859 79 188 2.0 7.0 0.00 0.00 0.00 79 1008.4
20260506021355 79 211 0.0 1.0 0.00 0.00 0.00 79 1008.4
20260506020852 79 225 0.0 0.0 0.00 0.00 0.00 78 1008.3
20260506020350 79 201 2.0 3.0 0.00 0.00 0.00 78 1008.4
20260506015847 79 198 3.0 3.0 0.00 0.00 0.00 78 1008.4
20260506015345 79 183 1.0 4.0 0.00 0.00 0.00 77 1008.2
20260506014841 79 213 0.0 1.0 0.00 0.00 0.00 77 1008.2
20260506014338 79 201 3.0 3.0 0.00 0.00 0.00 77 1008.0
20260506013835 80 226 2.0 2.0 0.00 0.00 0.00 77 1008.1
20260506013332 80 244 1.0 4.0 0.00 0.00 0.00 77 1008.0
20260506012828 80 194 0.0 2.0 0.00 0.00 0.00 77 1007.9
20260506012326 80 193 0.0 4.0 0.00 0.00 0.00 77 1007.9
20260506011823 80 202 1.0 3.0 0.00 0.00 0.00 76 1007.6
20260506011320 80 230 1.0 3.0 0.00 0.00 0.00 76 1007.7
20260506010817 80 183 0.0 2.0 0.00 0.00 0.00 76 1007.5
20260506010315 80 208 1.0 1.0 0.00 0.00 0.00 76 1007.5
20260506005812 80 180 0.0 2.0 0.00 0.00 0.00 76 1007.5
20260506005308 80 209 1.0 2.0 0.00 0.00 0.00 75 1007.6
20260506004805 80 206 2.0 3.0 0.00 0.00 0.00 75 1007.7
20260506004302 80 211 1.0 2.0 0.00 0.00 0.00 75 1007.4
20260506003758 81 144 1.0 3.0 0.00 0.00 0.00 75 1007.3
20260506003254 81 181 1.0 2.0 0.00 0.00 0.00 74 1007.3
20260506002750 81 55 1.0 2.0 0.00 0.00 0.00 74 1007.4
20260506002247 81 225 1.0 3.0 0.00 0.00 0.00 74 1007.3
20260506001743 81 206 1.0 1.0 0.00 0.00 0.00 73 1007.2
20260506001241 81 190 1.0 3.0 0.00 0.00 0.00 73 1007.2
20260506000737 81 203 0.0 6.0 0.00 0.00 0.00 72 1007.1
20260506000235 81 242 0.0 3.0 0.00 0.00 0.00 72 1007.2
20260505235732 82 186 1.0 1.0 0.00 0.00 0.00 72 1007.4
20260505235230 82 191 0.0 2.0 0.00 0.00 0.00 72 1007.4
20260505234726 82 202 1.0 2.0 0.00 0.00 0.00 72 1007.1
20260505234224 82 168 2.0 4.0 0.00 0.00 0.00 72 1007.2
20260505233720 82 32 3.0 4.0 0.00 0.00 0.00 71 1007.2
20260505233218 82 201 1.0 4.0 0.00 0.00 0.00 72 1007.2
20260505232715 82 185 0.0 4.0 0.00 0.00 0.00 72 1007.2
20260505232212 82 215 1.0 2.0 0.00 0.00 0.00 71 1007.1
20260505231709 82 253 2.0 4.0 0.00 0.00 0.00 71 1007.1
20260505231208 82 246 0.0 3.0 0.00 0.00 0.00 71 1007.2
20260505230706 83 190 1.0 6.0 0.00 0.00 0.00 71 1007.2
20260505230202 83 167 2.0 3.0 0.00 0.00 0.00 70 1007.3
20260505225658 83 232 1.0 3.0 0.00 0.00 0.00 71 1007.3
20260505225155 83 128 0.0 6.0 0.00 0.00 0.00 71 1007.2
20260505224651 83 187 2.0 3.0 0.00 0.00 0.00 70 1007.3
20260505224149 83 177 0.0 1.0 0.00 0.00 0.00 71 1007.1
20260505223646 83 151 4.0 7.0 0.00 0.00 0.00 70 1007.1
20260505223142 83 206 1.0 4.0 0.00 0.00 0.00 70 1007.3
20260505222638 84 206 0.0 4.0 0.00 0.00 0.00 69 1007.3
20260505222135 83 204 1.0 3.0 0.00 0.00 0.00 70 1007.2
20260505221632 83 149 1.0 4.0 0.00 0.00 0.00 70 1007.4
20260505221128 83 40 3.0 3.0 0.00 0.00 0.00 69 1007.5
20260505220626 83 11 1.0 1.0 0.00 0.00 0.00 70 1007.3
20260505220123 83 215 1.0 9.0 0.00 0.00 0.00 70 1007.2
20260505215621 84 147 1.0 3.0 0.00 0.00 0.00 70 1007.4
20260505215119 84 157 3.0 4.0 0.00 0.00 0.00 69 1007.6
20260505214617 83 193 1.0 1.0 0.00 0.00 0.00 70 1007.6
20260505214114 83 176 2.0 2.0 0.00 0.00 0.00 70 1007.5
20260505213611 84 202 1.0 6.0 0.00 0.00 0.00 70 1007.8
20260505213108 84 192 2.0 3.0 0.00 0.00 0.00 70 1007.9
20260505212604 84 41 2.0 3.0 0.00 0.00 0.00 69 1007.9
20260505212102 84 173 2.0 6.0 0.00 0.00 0.00 69 1007.8
20260505211558 84 127 1.0 4.0 0.00 0.00 0.00 70 1007.8
20260505211055 84 200 1.0 4.0 0.00 0.00 0.00 69 1007.9
20260505210551 84 105 1.0 4.0 0.00 0.00 0.00 68 1008.1
20260505210049 84 190 2.0 2.0 0.00 0.00 0.00 69 1008.1
20260505205546 85 141 2.0 2.0 0.00 0.00 0.00 68 1008.2
20260505205044 85 245 2.0 3.0 0.00 0.00 0.00 67 1008.0
20260505204541 85 224 1.0 3.0 0.00 0.00 0.00 68 1008.2
20260505204038 85 206 1.0 4.0 0.00 0.00 0.00 68 1008.2
20260505203535 85 213 2.0 2.0 0.00 0.00 0.00 66 1008.3
20260505203032 86 157 2.0 4.0 0.00 0.00 0.00 65 1008.3
20260505202528 86 263 0.0 1.0 0.00 0.00 0.00 66 1008.5
20260505202024 85 197 4.0 4.0 0.00 0.00 0.00 66 1008.5
20260505201521 85 180 2.0 2.0 0.00 0.00 0.00 67 1008.6
20260505201019 84 242 0.0 3.0 0.00 0.00 0.00 67 1008.9
20260505200517 84 234 2.0 3.0 0.00 0.00 0.00 68 1008.8
20260505200013 84 219 1.0 3.0 0.00 0.00 0.00 68 1009.0
20260505195509 84 239 1.0 4.0 0.00 0.00 0.00 68 1009.1
20260505195007 84 165 1.0 2.0 0.00 0.00 0.00 69 1009.0
20260505194504 84 197 2.0 3.0 0.00 0.00 0.00 69 1009.1
20260505194004 84 206 1.0 4.0 0.00 0.00 0.00 70 1009.2
20260505193501 85 123 1.0 3.0 0.00 0.00 0.00 68 1009.1
20260505192959 85 235 1.0 2.0 0.00 0.00 0.00 67 1009.0
20260505192457 84 206 3.0 3.0 0.00 0.00 0.00 69 1009.1
20260505191954 84 228 1.0 2.0 0.00 0.00 0.00 67 1009.2
20260505191453 84 226 1.0 1.0 0.00 0.00 0.00 68 1009.3
20260505190949 84 221 1.0 3.0 0.00 0.00 0.00 68 1009.2
20260505190444 84 207 4.0 4.0 0.00 0.00 0.00 68 1009.3
20260505185940 84 167 2.0 3.0 0.00 0.00 0.00 67 1009.4
20260505185438 84 160 0.0 2.0 0.00 0.00 0.00 69 1009.3
20260505184934 84 184 1.0 1.0 0.00 0.00 0.00 70 1009.5
20260505184431 83 245 0.0 2.0 0.00 0.00 0.00 71 1009.3
20260505183927 82 147 1.0 2.0 0.00 0.00 0.00 72 1009.5
20260505183425 82 197 2.0 3.0 0.00 0.00 0.00 71 1009.6
20260505182921 83 160 0.0 3.0 0.00 0.00 0.00 71 1009.5
20260505182418 83 236 0.0 0.0 0.00 0.00 0.00 72 1009.7
20260505181914 82 244 2.0 4.0 0.00 0.00 0.00 72 1009.6
20260505181412 82 191 1.0 3.0 0.00 0.00 0.00 73 1009.7
20260505180909 81 135 4.0 4.0 0.00 0.00 0.00 74 1009.7
20260505180405 81 150 0.0 2.0 0.00 0.00 0.00 75 1009.8
20260505175902 81 193 1.0 1.0 0.00 0.00 0.00 74 1009.9
20260505175358 81 208 1.0 1.0 0.00 0.00 0.00 73 1009.7
20260505174854 82 289 1.0 2.0 0.00 0.00 0.00 72 1009.9
20260505174352 81 223 1.0 2.0 0.00 0.00 0.00 73 1009.9
20260505173848 81 213 2.0 2.0 0.00 0.00 0.00 75 1009.9
20260505173345 80 233 2.0 2.0 0.00 0.00 0.00 76 1009.8
20260505172842 80 201 0.0 2.0 0.00 0.00 0.00 76 1010.0
20260505172339 80 201 0.0 1.0 0.00 0.00 0.00 77 1010.2
20260505171839 80 218 1.0 3.0 0.00 0.00 0.00 75 1010.2
20260505171336 80 286 1.0 2.0 0.00 0.00 0.00 77 1010.1
20260505170833 80 209 1.0 1.0 0.00 0.00 0.00 79 1010.2
20260505170329 79 201 0.0 2.0 0.00 0.00 0.00 81 1010.3
20260505165825 78 155 0.0 3.0 0.00 0.00 0.00 83 1010.2
20260505165320 78 151 1.0 2.0 0.00 0.00 0.00 83 1010.3
20260505164816 78 176 1.0 2.0 0.00 0.00 0.00 81 1010.2
20260505164313 79 212 2.0 2.0 0.00 0.00 0.00 79 1010.3
20260505163812 79 147 1.0 2.0 0.00 0.00 0.00 78 1010.2
20260505163310 79 173 1.0 6.0 0.00 0.00 0.00 78 1010.3
20260505162808 79 169 1.0 2.0 0.00 0.00 0.00 78 1010.2
20260505162306 79 184 1.0 2.0 0.00 0.00 0.00 78 1010.0
20260505161801 79 204 1.0 1.0 0.00 0.00 0.00 79 1010.1
20260505161258 79 238 1.0 1.0 0.00 0.00 0.00 80 1010.2
20260505160755 79 218 0.0 2.0 0.00 0.00 0.00 79 1010.0
20260505160253 78 209 1.0 3.0 0.00 0.00 0.00 79 1010.2
20260505153232 77 197 1.0 1.0 0.00 0.00 0.00 83 1010.1
20260505152729 77 249 2.0 4.0 0.00 0.00 0.00 82 1009.8
20260505152226 77 209 2.0 3.0 0.00 0.00 0.00 82 1009.7
20260505151720 77 157 2.0 6.0 0.00 0.00 0.00 82 1009.8
20260505151218 77 166 0.0 0.0 0.00 0.00 0.00 82 1009.9
20260505150714 77 219 3.0 4.0 0.00 0.00 0.00 81 1009.7
20260505150212 77 321 1.0 3.0 0.00 0.00 0.00 80 1009.9